User: anonymous   Login
Location: Caltech
(34.1382°N, 118.1253°W)
Time: 22:44:50
(UTC-07:00)
Language:

HO-68 - Orbit

View from above orbital plane
View from above orbital plane
View from above satellite
View from above satellite

Ground track
Ground track

The orbit data is extracted from the following two-line orbital elements,

1 36122U 09072B   16208.73322602 -.00000033  00000-0  25605-4 0  9993
2 36122 100.1398 242.9871 0006772 265.1976  94.8364 13.16335212317810
Epoch (UTC): 26 July 2016 17:35:50
Eccentricity: 0.0006772
inclination: 100.1398°
perigee height: 1193 km
apogee height: 1204 km
right ascension of ascending node: 242.9871°
argument of perigee: 265.1976°
revolutions per day: 13.16335212
mean anomaly at epoch: 94.8364°
orbit number at epoch: 31781

The dashed part of the orbit path shows where the satellite is in the earth's shadow,  

DLR